Regional Weather Roundup
Issued by NWS

Home | Current Version | Previous Version | Text Only | Print | Product List | Glossary On
Versions: 1 2 3 4 5 6 7 8 9 10 11 12 13 14 15 16 17 18 19 20 21 22 23 24 25 26 27 28 29 30 31 32 33 34 35 36 37 38 39 40 41 42 43 44 45 46 47 48 49 50
000
ASUS44 KMEG 190500
RWRTN
TENNESSEE HOURLY STATE WEATHER ROUNDUP
NATIONAL WEATHER SERVICE MEMPHIS TN
1100 PM CST THU DEC 18 2014

TNZ002-004-019-021-049-052-054-088>092-190600-
WEST TENNESSEE

CITY           SKY/WX    TMP DP  RH WIND       PRES   REMARKS
MEMPHIS INTL   CLOUDY    44  38  79 NE5       30.25R
NWS MEMPHIS      N/A     42 N/A N/A MISG        N/A
JACKSON        CLOUDY    41  35  79 CALM      30.24S
DYERSBURG      CLOUDY    39  25  56 NE5       30.27R
$$

TNZ008-025-027-028-033-062-065-066-190600-
NORTH MIDDLE TENNESSEE

CITY           SKY/WX    TMP DP  RH WIND       PRES   REMARKS
NASHVILLE      CLOUDY    37  32  82 N5        30.25S WCI  33
CLARKSVILLE    CLOUDY    34  29  82 N6        30.26S WCI  29
COOKEVILLE     CLOUDY    34  34 100 CALM      30.20S
CROSSVILLE     PTCLDY    34  30  85 W5        30.19R WCI  30
$$

TNZ061-075-076-078-094-096-097-190600-
SOUTH MIDDLE TENNESSEE

CITY           SKY/WX    TMP DP  RH WIND       PRES   REMARKS
FAYETTEVILLE   CLEAR     30  28  93 CALM      30.19F
$$

TNZ017-018-042-046-047-190600-
NORTHEAST TENNESSEE

CITY           SKY/WX    TMP DP  RH WIND       PRES   REMARKS
TRI CITIES     CLOUDY    40  29  64 W3        30.15R
$$

TNZ012-013-036-069-073-074-190600-
CENTRAL EAST TENNESSEE

CITY           SKY/WX    TMP DP  RH WIND       PRES   REMARKS
KNOXVILLE      CLOUDY    40  27  59 CALM      30.19R
OAK RIDGE      CLOUDY    40  31  70 CALM      30.20S
$$

TNZ083-085-099-190600-
SOUTHEAST TENNESSEE

CITY           SKY/WX    TMP DP  RH WIND       PRES   REMARKS
CHATTANOOGA    PTCLDY    41  35  79 CALM      30.19S
$$

SKY/WX REPORTED AS FAIR MEANS FEW OR NO CLOUDS BELOW
12 THOUSAND FEET.



USA.gov is the U.S. government's official web portal to all federal, state and local government web resources and services.